| time (UTC) | temp F | wind direction | speed MPH | gust MPH | rain 1hr in | rain 24hr in | rain mn in | humidity % | barometer mb |
| 20260504010056 | 57 | 196 | 0.0 | 0.0 | 0.00 | 0.00 | 0.00 | 30 | 1033.1 |
| 20260504004611 | 58 | 196 | 0.0 | 2.0 | 0.00 | 0.00 | 0.00 | 30 | 1033.1 |
| 20260504003100 | 59 | 196 | 0.0 | 3.0 | 0.00 | 0.00 | 0.00 | 29 | 1033.1 |
| 20260504001558 | 60 | 182 | 1.0 | 4.0 | 0.00 | 0.00 | 0.00 | 27 | 1033.0 |
| 20260504000054 | 60 | 156 | 0.0 | 3.0 | 0.00 | 0.00 | 0.00 | 23 | 1032.7 |
| 20260503234553 | 61 | 157 | 0.0 | 8.0 | 0.00 | 0.00 | 0.00 | 24 | 1032.8 |
| 20260503233054 | 62 | 190 | 0.0 | 2.0 | 0.00 | 0.00 | 0.00 | 20 | 1032.7 |
| 20260503231555 | 62 | 191 | 0.0 | 0.0 | 0.00 | 0.00 | 0.00 | 21 | 1032.6 |
| 20260503230052 | 62 | 119 | 0.0 | 6.0 | 0.00 | 0.00 | 0.00 | 20 | 1032.7 |
| 20260503224549 | 62 | 350 | 0.0 | 0.0 | 0.00 | 0.00 | 0.00 | 22 | 1032.8 |
| 20260503223047 | 61 | 335 | 0.0 | 4.0 | 0.00 | 0.00 | 0.00 | 21 | 1033.0 |
| 20260503221552 | 61 | 140 | 0.0 | 0.0 | 0.00 | 0.00 | 0.00 | 24 | 1033.2 |
| 20260503220045 | 60 | 144 | 0.0 | 0.0 | 0.00 | 0.00 | 0.00 | 24 | 1033.6 |
| 20260503214543 | 61 | 144 | 3.0 | 7.0 | 0.00 | 0.00 | 0.00 | 23 | 1033.9 |
| 20260503213044 | 62 | 159 | 0.0 | 4.0 | 0.00 | 0.00 | 0.00 | 18 | 1033.9 |
| 20260503211542 | 63 | 5 | 1.0 | 7.0 | 0.00 | 0.00 | 0.00 | 18 | 1034.1 |
| 20260503210038 | 63 | 166 | 1.0 | 5.0 | 0.00 | 0.00 | 0.00 | 18 | 1034.3 |
| 20260503204537 | 63 | 203 | 1.0 | 6.0 | 0.00 | 0.00 | 0.00 | 18 | 1034.6 |
| 20260503203037 | 64 | 39 | 0.0 | 6.0 | 0.00 | 0.00 | 0.00 | 19 | 1034.9 |
| 20260503201533 | 64 | 66 | 0.0 | 4.0 | 0.00 | 0.00 | 0.00 | 18 | 1034.8 |
| 20260503200031 | 64 | 170 | 0.0 | 3.0 | 0.00 | 0.00 | 0.00 | 18 | 1035.1 |
| 20260503194529 | 62 | 189 | 0.0 | 7.0 | 0.00 | 0.00 | 0.00 | 18 | 1035.2 |
| 20260503193036 | 62 | 140 | 0.0 | 6.0 | 0.00 | 0.00 | 0.00 | 20 | 1035.5 |
| 20260503191525 | 63 | 268 | 0.0 | 6.0 | 0.00 | 0.00 | 0.00 | 19 | 1035.7 |
| 20260503190030 | 62 | 351 | 0.0 | 5.0 | 0.00 | 0.00 | 0.00 | 21 | 1036.0 |
| 20260503184521 | 62 | 139 | 1.0 | 5.0 | 0.00 | 0.00 | 0.00 | 20 | 1036.2 |
| 20260503183018 | 61 | 200 | 0.0 | 3.0 | 0.00 | 0.00 | 0.00 | 21 | 1036.6 |
| 20260503181516 | 61 | 181 | 1.0 | 6.0 | 0.00 | 0.00 | 0.00 | 23 | 1037.0 |
| 20260503180013 | 60 | 346 | 0.0 | 3.0 | 0.00 | 0.00 | 0.00 | 21 | 1037.4 |
| 20260503174507 | 59 | 355 | 0.0 | 1.0 | 0.00 | 0.00 | 0.00 | 22 | 1037.7 |
| 20260503173015 | 59 | 11 | 0.0 | 7.0 | 0.00 | 0.00 | 0.00 | 23 | 1037.9 |
| 20260503171502 | 59 | 321 | 0.0 | 2.0 | 0.00 | 0.00 | 0.00 | 25 | 1038.1 |
| 20260503100107 | 35 | 229 | 0.0 | 0.0 | 0.00 | 0.00 | 0.00 | 61 | 1040.1 |
| 20260503081545 | 37 | 229 | 0.0 | 0.0 | 0.00 | 0.00 | 0.00 | 57 | 1040.9 |
| 20260503071539 | 37 | 229 | 0.0 | 0.0 | 0.00 | 0.00 | 0.00 | 54 | 1041.4 |
| 20260503054530 | 38 | 229 | 0.0 | 0.0 | 0.00 | 0.00 | 0.00 | 48 | 1041.8 |
| 20260503053020 | 39 | 229 | 0.0 | 0.0 | 0.00 | 0.00 | 0.00 | 49 | 1041.8 |
| 20260503051519 | 39 | 229 | 0.0 | 0.0 | 0.00 | 0.00 | 0.00 | 47 | 1041.8 |
| 20260503050020 | 39 | 229 | 0.0 | 0.0 | 0.00 | 0.00 | 0.00 | 48 | 1041.8 |
| 20260503044518 | 40 | 229 | 0.0 | 0.0 | 0.00 | 0.00 | 0.00 | 48 | 1041.8 |
| 20260503043017 | 41 | 229 | 0.0 | 0.0 | 0.00 | 0.00 | 0.00 | 45 | 1041.7 |
| 20260503041517 | 41 | 229 | 0.0 | 0.0 | 0.00 | 0.00 | 0.00 | 43 | 1041.6 |
| 20260503040016 | 42 | 229 | 0.0 | 0.0 | 0.00 | 0.00 | 0.00 | 42 | 1041.6 |
| 20260503034516 | 43 | 229 | 0.0 | 0.0 | 0.00 | 0.00 | 0.00 | 42 | 1041.5 |
| 20260503033023 | 44 | 229 | 0.0 | 0.0 | 0.00 | 0.00 | 0.00 | 39 | 1041.5 |
| 20260503031515 | 45 | 229 | 0.0 | 0.0 | 0.00 | 0.00 | 0.00 | 38 | 1041.5 |
| 20260503030014 | 47 | 229 | 0.0 | 0.0 | 0.00 | 0.00 | 0.00 | 35 | 1041.6 |
| 20260503024514 | 48 | 229 | 0.0 | 0.0 | 0.00 | 0.00 | 0.00 | 31 | 1041.5 |
| 20260503023013 | 49 | 229 | 0.0 | 0.0 | 0.00 | 0.00 | 0.00 | 29 | 1041.5 |
| 20260503021515 | 50 | 229 | 0.0 | 0.0 | 0.00 | 0.00 | 0.00 | 28 | 1041.3 |
| 20260503020012 | 52 | 229 | 0.0 | 0.0 | 0.00 | 0.00 | 0.00 | 26 | 1041.3 |
| 20260503014511 | 54 | 229 | 0.0 | 0.0 | 0.00 | 0.00 | 0.00 | 22 | 1041.2 |
| 20260503013011 | 56 | 229 | 0.0 | 0.0 | 0.00 | 0.00 | 0.00 | 19 | 1041.1 |
| 20260503011511 | 57 | 229 | 0.0 | 0.0 | 0.00 | 0.00 | 0.00 | 18 | 1041.0 |